When you browse on this site, cookies collect data to enhance your experience and personalize the content and advertising you see.
Visit our Privacy Policy to learn more. By continuing to use the site, you agree to this use of cookies and data.
  • In Lithuania
  • List of Countries
  • For 7 days
  • Water Temperature
  • Weather Map
  • Weather Widgets
  • user-avatar
    Login

    Hourly Weather Krobia

    Today, 26 May, Tuesday

    Time Temperature Precipitation Wind Pressure Humidity
    00:00 +8°C° 0 mm 3 mps 761 mmHg 95%
    01:00 +8°C° 0 mm 2 mps 761 mmHg 96%
    02:00 +7°C° 0 mm 2 mps 761 mmHg 96%
    03:00 +7°C° 0 mm 2 mps 761 mmHg 96%
    04:00 +7°C° 0 mm 2 mps 762 mmHg 97%
    05:00 +8°C° 0 mm 2 mps 762 mmHg 95%
    06:00 +9°C° 0 mm 3 mps 762 mmHg 93%
    07:00 +10°C° 0 mm 3 mps 763 mmHg 91%
    08:00 +11°C° 0.1 mm 3 mps 763 mmHg 86%
    09:00 +12°C° 0.1 mm 4 mps 763 mmHg 81%
    10:00 +13°C° 0.1 mm 4 mps 763 mmHg 76%
    11:00 +14°C° 0.1 mm 4 mps 763 mmHg 71%
    12:00 +15°C° 0.1 mm 4 mps 763 mmHg 67%
    13:00 +16°C° 0.1 mm 5 mps 763 mmHg 63%
    14:00 +17°C° 0 mm 5 mps 762 mmHg 63%
    15:00 +17°C° 0 mm 5 mps 762 mmHg 63%
    16:00 +17°C° 0 mm 5 mps 762 mmHg 63%
    17:00 +17°C° 0.1 mm 4 mps 762 mmHg 69%
    18:00 +15°C° 0.1 mm 4 mps 762 mmHg 75%
    19:00 +14°C° 0.1 mm 3 mps 763 mmHg 81%
    20:00 +12°C° 0 mm 3 mps 763 mmHg 83%
    21:00 +12°C° 0 mm 2 mps 763 mmHg 86%
    22:00 +10°C° 0 mm 2 mps 763 mmHg 89%
    23:00 +9°C° 0 mm 2 mps 763 mmHg 90%

    Tomorrow, 27 May, Wednesday

    Time Temperature Precipitation Wind Pressure Humidity
    00:00 +9°C° 0 mm 2 mps 763 mmHg 91%
    01:00 +8°C° 0 mm 2 mps 763 mmHg 92%
    02:00 +8°C° 0 mm 2 mps 763 mmHg 92%
    03:00 +8°C° 0 mm 1 mps 763 mmHg 92%
    04:00 +8°C° 0 mm 1 mps 763 mmHg 91%
    05:00 +10°C° 0 mm 1 mps 763 mmHg 87%
    06:00 +10°C° 0 mm 2 mps 763 mmHg 83%
    07:00 +13°C° 0 mm 2 mps 763 mmHg 79%
    08:00 +14°C° 0 mm 2 mps 763 mmHg 75%
    09:00 +15°C° 0 mm 2 mps 763 mmHg 71%
    10:00 +16°C° 0 mm 2 mps 763 mmHg 67%
    11:00 +17°C° 0 mm 2 mps 762 mmHg 64%
    12:00 +18°C° 0 mm 2 mps 762 mmHg 61%
    13:00 +18°C° 0 mm 2 mps 761 mmHg 58%
    14:00 +19°C° 0 mm 2 mps 761 mmHg 56%
    15:00 +19°C° 0 mm 3 mps 761 mmHg 54%
    16:00 +19°C° 0 mm 3 mps 760 mmHg 52%
    17:00 +18°C° 0 mm 2 mps 760 mmHg 57%
    18:00 +18°C° 0 mm 1 mps 760 mmHg 63%
    19:00 +16°C° 0 mm 1 mps 759 mmHg 68%
    20:00 +15°C° 0 mm 1 mps 760 mmHg 68%
    21:00 +14°C° 0 mm 1 mps 760 mmHg 68%
    22:00 +13°C° 0 mm 1 mps 760 mmHg 68%
    23:00 +13°C° 0.2 mm 2 mps 760 mmHg 75%

    Day after tomorrow, 28 May, Thursday

    Time Temperature Precipitation Wind Pressure Humidity
    00:00 +13°C° 0.2 mm 2 mps 760 mmHg 83%
    01:00 +12°C° 0.2 mm 3 mps 760 mmHg 90%
    02:00 +11°C° 0.1 mm 3 mps 760 mmHg 90%
    03:00 +10°C° 0.1 mm 3 mps 759 mmHg 91%
    04:00 +9°C° 0.1 mm 3 mps 759 mmHg 91%
    05:00 +10°C° 0 mm 4 mps 759 mmHg 88%
    06:00 +10°C° 0 mm 4 mps 759 mmHg 86%
    07:00 +10°C° 0 mm 5 mps 759 mmHg 83%
    08:00 +12°C° 0 mm 5 mps 759 mmHg 77%
    09:00 +14°C° 0 mm 5 mps 759 mmHg 71%
    10:00 +15°C° 0 mm 5 mps 759 mmHg 64%
    11:00 +16°C° 0.1 mm 5 mps 759 mmHg 63%
    12:00 +17°C° 0.1 mm 5 mps 758 mmHg 62%
    13:00 +17°C° 0.1 mm 5 mps 758 mmHg 60%
    14:00 +17°C° 0.3 mm 5 mps 758 mmHg 62%
    15:00 +17°C° 0.3 mm 6 mps 758 mmHg 64%
    16:00 +17°C° 0.3 mm 6 mps 758 mmHg 65%
    17:00 +16°C° 0.4 mm 5 mps 758 mmHg 71%
    18:00 +14°C° 0.4 mm 5 mps 758 mmHg 77%
    19:00 +13°C° 0.4 mm 4 mps 758 mmHg 82%
    20:00 +12°C° 0 mm 4 mps 759 mmHg 82%
    21:00 +10°C° 0 mm 4 mps 759 mmHg 82%
    22:00 +9°C° 0 mm 3 mps 759 mmHg 82%
    23:00 +8°C° 0 mm 3 mps 759 mmHg 83%

    29 May, Friday

    Time Temperature Precipitation Wind Pressure Humidity
    00:00 +7°C° 0 mm 3 mps 760 mmHg 84%
    01:00 +6°C° 0 mm 2 mps 760 mmHg 84%
    02:00 +6°C° 0 mm 2 mps 760 mmHg 86%
    03:00 +6°C° 0 mm 2 mps 760 mmHg 87%
    04:00 +6°C° 0 mm 2 mps 760 mmHg 88%
    05:00 +7°C° 0 mm 3 mps 760 mmHg 82%
    06:00 +8°C° 0 mm 3 mps 760 mmHg 77%
    07:00 +10°C° 0 mm 3 mps 760 mmHg 72%
    08:00 +11°C° 0 mm 4 mps 760 mmHg 66%
    09:00 +12°C° 0 mm 4 mps 760 mmHg 60%
    10:00 +14°C° 0 mm 4 mps 760 mmHg 55%
    11:00 +15°C° 0 mm 4 mps 760 mmHg 54%
    12:00 +15°C° 0 mm 4 mps 759 mmHg 54%
    13:00 +17°C° 0 mm 4 mps 759 mmHg 54%
    14:00 +17°C° 0.2 mm 4 mps 758 mmHg 56%
    15:00 +15°C° 0.2 mm 4 mps 758 mmHg 59%
    16:00 +15°C° 0.2 mm 4 mps 758 mmHg 61%
    17:00 +14°C° 0.2 mm 3 mps 758 mmHg 67%
    18:00 +14°C° 0.2 mm 2 mps 758 mmHg 73%
    19:00 +13°C° 0.2 mm 1 mps 758 mmHg 79%
    20:00 +12°C° 0 mm 1 mps 758 mmHg 80%
    21:00 +12°C° 0 mm 1 mps 758 mmHg 81%
    22:00 +11°C° 0 mm 1 mps 758 mmHg 82%
    23:00 +10°C° 0 mm 1 mps 758 mmHg 82%

    30 May, Saturday

    Time Temperature Precipitation Wind Pressure Humidity
    00:00 +10°C° 0 mm 1 mps 758 mmHg 83%
    01:00 +9°C° 0 mm 0 mps 758 mmHg 83%
    02:00 +9°C° 0 mm 1 mps 758 mmHg 85%
    03:00 +9°C° 0 mm 1 mps 758 mmHg 87%
    04:00 +8°C° 0 mm 1 mps 758 mmHg 88%
    05:00 +10°C° 0 mm 1 mps 758 mmHg 85%
    06:00 +11°C° 0 mm 1 mps 758 mmHg 81%
    07:00 +13°C° 0 mm 1 mps 758 mmHg 78%
    08:00 +14°C° 0.1 mm 2 mps 758 mmHg 73%
    09:00 +14°C° 0.1 mm 3 mps 758 mmHg 68%
    10:00 +15°C° 0.1 mm 4 mps 757 mmHg 63%
    11:00 +15°C° 0.1 mm 4 mps 757 mmHg 60%
    12:00 +17°C° 0.1 mm 4 mps 757 mmHg 58%
    13:00 +16°C° 0.1 mm 5 mps 757 mmHg 56%
    14:00 +17°C° 0.1 mm 4 mps 756 mmHg 58%
    15:00 +17°C° 0.1 mm 4 mps 756 mmHg 59%
    16:00 +15°C° 0.1 mm 4 mps 756 mmHg 61%
    17:00 +16°C° 0.1 mm 3 mps 756 mmHg 66%
    18:00 +14°C° 0.1 mm 3 mps 756 mmHg 70%
    19:00 +14°C° 0.1 mm 2 mps 755 mmHg 74%
    20:00 +13°C° 0 mm 2 mps 756 mmHg 76%
    21:00 +10°C° 0 mm 2 mps 756 mmHg 79%
    22:00 +9°C° 0 mm 2 mps 756 mmHg 81%
    23:00 +8°C° 0 mm 2 mps 756 mmHg 83%

    31 May, Sunday

    Time Temperature Precipitation Wind Pressure Humidity
    00:00 +7°C° 0 mm 2 mps 756 mmHg 86%
    01:00 +6°C° 0 mm 2 mps 756 mmHg 88%
    02:00 +6°C° 0 mm 2 mps 756 mmHg 89%
    03:00 +5°C° 0 mm 2 mps 755 mmHg 89%
    04:00 +5°C° 0 mm 2 mps 755 mmHg 89%
    05:00 +7°C° 0 mm 2 mps 755 mmHg 83%
    06:00 +9°C° 0 mm 2 mps 755 mmHg 77%
    07:00 +10°C° 0 mm 2 mps 755 mmHg 70%
    08:00 +13°C° 0 mm 2 mps 755 mmHg 65%
    09:00 +13°C° 0 mm 3 mps 755 mmHg 60%
    10:00 +14°C° 0 mm 3 mps 755 mmHg 55%
    11:00 +16°C° 0 mm 3 mps 755 mmHg 55%
    12:00 +17°C° 0 mm 3 mps 754 mmHg 55%
    13:00 +17°C° 0 mm 3 mps 754 mmHg 55%
    14:00 +17°C° 0 mm 3 mps 754 mmHg 54%
    15:00 +17°C° 0 mm 2 mps 753 mmHg 54%
    16:00 +18°C° 0 mm 2 mps 753 mmHg 54%
    17:00 +17°C° 0 mm 2 mps 753 mmHg 61%
    18:00 +16°C° 0 mm 1 mps 753 mmHg 67%
    19:00 +15°C° 0 mm 1 mps 753 mmHg 73%
    20:00 +13°C° 0 mm 1 mps 753 mmHg 79%
    21:00 +12°C° 0 mm 1 mps 753 mmHg 84%
    22:00 +11°C° 0 mm 1 mps 754 mmHg 89%
    23:00 +11°C° 0 mm 1 mps 754 mmHg 91%
    Show more